[[{"header":{"parameterUnit":"m.s-1","parameterCategory":1,"la1":30.2991,"la2":30.254,"lo1":-89.0895,"lo2":-89.0444,"dy":0.0017,"dx":0.0017,"nx":28,"ny":28,"refTime":"2024-07-26T03:00:00:Z","depth":0,"parameterNumber":2,"parameterNumberName":"U-component_of_WINDS"},"data":[0,0,0,0,0,0,0,0,0,0,0,0,0,0,0,0,0,0,0,0,0,0,0,0,0,0,0,0,0,0,0,0,0,0,0,0,0,0,0,0,0,0,0,0,0,0,0,0,0,0,0,0,0,0,0,0,0,0,-2.4139,-2.4138,0,-2.4016,-2.4014,-2.4013,-2.3916,-2.3915,-2.3914,-2.3913,-2.3781,-2.3779,-2.3776,0,0,0,0,0,0,0,0,0,0,0,0,0,-2.4288,-2.4286,-2.4139,-2.4138,-2.4136,-2.4016,-2.4014,-2.4012,-2.3916,-2.3915,-2.3914,-2.3913,-2.3782,-2.3779,-2.3776,0,0,0,0,0,0,0,0,0,0,0,0,0,-2.42,-2.4286,-2.414,-2.4074,-2.4067,-2.4016,-2.4014,-2.4012,-2.3916,-2.3915,-2.3914,-2.3912,-2.3783,-2.378,-2.3776,-2.3779,0,0,-2.3763,-2.3762,0,0,0,0,0,0,0,0,-2.4205,-2.4195,-2.4085,-2.4078,-2.407,-2.398,-2.4018,-2.3934,-2.3917,-2.3973,-2.3913,-2.3912,-2.3848,-2.3839,-2.3819,-2.3773,-2.3767,-2.3763,-2.3761,-2.3759,-2.3758,0,0,0,0,0,0,0,-2.4211,-2.4199,-2.409,-2.4084,-2.4075,-2.4049,-2.4035,-2.4002,-2.392,-2.3968,-2.3961,-2.3948,-2.3844,-2.3823,-2.3815,-2.3765,-2.3763,-2.376,-2.3757,-2.3756,-2.3716,-2.3717,0,0,0,0,0,0,-2.4228,-2.4205,-2.4094,-2.4087,-2.4136,-2.4048,-2.4032,-2.401,-2.392,-2.3905,-2.3949,-2.3944,-2.383,-2.3819,-2.381,-2.3807,-2.3759,-2.3755,-2.3753,-2.3715,-2.3716,-2.3718,0,0,0,0,0,0,-2.4232,-2.4219,-2.4099,-2.4144,-2.4127,-2.4047,-2.4023,-2.4009,-2.3987,-2.3906,-2.389,-2.3943,-2.3829,-2.3815,-2.3788,-2.3801,-2.3754,-2.375,-2.3713,-2.3715,-2.3717,-2.3803,0,0,0,0,0,0,-2.4237,-2.4221,-2.4223,-2.4145,-2.4125,-2.4081,-2.4024,-2.4007,-2.3981,-2.3973,-2.3896,-2.3881,-2.3826,-2.3794,-2.3784,-2.3795,-2.3747,-2.3711,-2.3714,-2.3716,-2.3799,-2.3808,-2.3816,0,0,0,0,0,-2.4242,-2.4251,-2.4223,-2.421,-2.4125,-2.4082,-2.407,-2.4008,-2.3983,-2.3983,-2.3931,-2.3884,-2.3802,-2.3792,-2.378,-2.379,-2.371,-2.3713,-2.3716,-2.3795,-2.3806,-2.3815,0,0,0,0,0,0,-2.433,-2.4239,-2.4208,-2.4191,-2.4145,-2.4065,-2.4063,-2.4022,-2.3981,-2.3974,-2.3898,-2.3881,-2.3862,-2.3823,-2.3814,-2.3789,-2.375,-2.3751,-2.3814,-2.3824,-2.3833,-2.3841,-2.3744,0,0,0,0,0,-2.4348,-2.4322,-2.4243,-2.4236,-2.4215,-2.4144,-2.4122,-2.4079,-2.4027,-2.4007,-2.3953,-2.3903,-2.3866,-2.3843,-2.3805,-2.3793,-2.3775,-2.3794,-2.3803,-2.381,-2.3811,-2.3802,-2.381,-2.3727,-2.3727,-2.3727,0,0,-2.4383,-2.433,-2.4318,-2.4252,-2.4212,-2.4185,-2.4128,-2.4102,-2.4081,-2.4002,-2.3973,-2.3932,-2.3872,-2.3853,-2.3841,-2.3819,-2.383,-2.3814,-2.3821,-2.3817,-2.3806,-2.3814,-2.3821,-2.3729,-2.3729,-2.3729,0,0,-2.4434,-2.4392,-2.4382,-2.4343,-2.4283,-2.4236,-2.4234,-2.416,-2.4131,-2.4101,-2.4042,-2.4015,-2.3953,-2.3913,-2.3884,-2.3923,-2.3878,-2.3913,-2.3956,-2.3948,-2.3954,-2.396,-2.3972,-2.3978,-2.3914,-2.3914,-2.3914,0,-2.4485,-2.4444,-2.4381,-2.4359,-2.4332,-2.4263,-2.4251,-2.4215,-2.4145,-2.4127,-2.4105,-2.4027,-2.3981,-2.3951,-2.3961,-2.3941,-2.3935,-2.392,-2.3959,-2.3964,-2.3968,-2.3979,-2.3984,-2.3919,-2.3918,-2.3918,-2.3917,0,-2.451,-2.4482,-2.4481,-2.4417,-2.439,-2.4373,-2.4307,-2.4286,-2.4247,-2.4202,-2.4172,-2.4116,-2.4065,-2.4055,-2.4014,-2.4019,-2.4008,-2.3974,-2.3933,-2.3981,-2.399,-2.3994,-2.3925,-2.3924,-2.3922,-2.3921,0,0,-2.4609,-2.4513,-2.4514,-2.4484,-2.4414,-2.4391,-2.4371,-2.4323,-2.4307,-2.4262,-2.4242,-2.4193,-2.4161,-2.4129,-2.4084,-2.4077,-2.411,-2.4043,-2.404,-2.4056,-2.4112,-2.4137,-2.4143,-2.4081,-2.4082,-2.4082,-2.4116,0,-2.4648,-2.461,-2.4554,-2.4534,-2.4508,-2.4443,-2.4426,-2.438,-2.4338,-2.4309,-2.4262,-2.4228,-2.4189,-2.4169,-2.416,-2.4109,-2.412,-2.4105,-2.4061,-2.406,-2.4076,-2.4148,-2.4174,-2.4208,-2.412,-2.412,-2.4121,0,-2.4688,-2.4648,-2.4627,-2.4559,-2.4546,-2.4532,-2.4484,-2.4457,-2.4404,-2.4374,-2.434,-2.4291,-2.4266,-2.4232,-2.4195,-2.4187,-2.4166,-2.4138,-2.4138,-2.4129,-2.4092,-2.414,-2.4218,-2.4223,-2.4126,-2.4125,-2.4125,0,-2.4762,-2.4703,-2.4682,-2.4659,-2.458,-2.4572,-2.4538,-2.4484,-2.446,-2.4418,-2.4401,-2.4356,-2.4331,-2.4297,-2.4237,-2.4218,-2.4208,-2.4168,-2.418,-2.4182,-2.4179,-2.418,-2.4253,-2.4169,-2.4169,-2.4169,-2.4169,0,-2.4809,-2.4798,-2.4715,-2.4702,-2.4687,-2.4623,-2.461,-2.4571,-2.4524,-2.4501,-2.4442,-2.4422,-2.4345,-2.4316,-2.427,-2.4246,-2.4236,-2.421,-2.4197,-2.4214,-2.4217,-2.4197,-2.4193,-2.417,-2.417,-2.4169,-2.4169,0,-2.4888,-2.4832,-2.4805,-2.4734,-2.4716,-2.4709,-2.4647,-2.4631,-2.4587,-2.456,-2.4549,-2.4479,-2.4442,-2.438,-2.4324,-2.4293,-2.4278,-2.4258,-2.4296,-2.4288,-2.4304,-2.4303,-2.4366,-2.437,-2.4285,-2.4286,-2.4287,0,-2.4922,-2.4912,-2.4841,-2.4823,-2.4792,-2.4763,-2.4738,-2.4675,-2.4651,-2.4591,-2.4583,-2.4542,-2.4505,-2.4448,-2.4391,-2.4348,-2.4325,-2.4351,-2.4318,-2.4336,-2.4324,-2.4325,-2.4323,-2.4357,-2.4359,-2.436,-2.4361,0,-2.4987,-2.496,-2.4927,-2.4886,-2.4858,-2.4822,-2.4782,-2.477,-2.4697,-2.4674,-2.4636,-2.4608,-2.4552,-2.4511,-2.4461,-2.4424,-2.438,-2.4372,-2.4372,-2.4388,-2.4411,-2.4398,-2.4315,-2.437,-2.4369,-2.4368,-2.4368,-2.4367,-2.5043,-2.5031,-2.498,-2.4946,-2.491,-2.4875,-2.4857,-2.4812,-2.478,-2.4731,-2.4695,-2.466,-2.4607,-2.4535,-2.4502,-2.4473,-2.4453,-2.4453,-2.4453,-2.4454,-2.446,-2.4418,-2.4463,-2.4463,-2.4463,-2.4462,-2.4462,0,-2.5104,-2.5068,-2.5038,-2.4985,-2.4958,-2.4922,-2.4876,-2.4856,-2.4826,-2.4782,-2.4748,-2.4705,-2.4666,-2.4607,-2.4563,-2.455,-2.4529,-2.4541,-2.454,-2.4532,-2.4481,-2.4485,-2.4559,-2.4559,-2.4559,-2.4559,-2.4559,-2.4559,-2.5132,-2.5111,-2.5079,-2.5039,-2.5002,-2.4969,-2.4946,-2.4913,-2.4878,-2.4833,-2.4801,-2.4764,-2.4713,-2.4666,-2.4628,-2.4611,-2.4597,-2.4615,-2.4592,-2.4545,-2.4536,-2.4527,-2.453,-2.4613,-2.4613,-2.4646,-2.4646,-2.4646]},{"header":{"parameterUnit":"m.s-1","parameterCategory":1,"la1":30.2991,"la2":30.254,"lo1":-89.0895,"lo2":-89.0444,"dy":0.0017,"dx":0.0017,"nx":28,"ny":28,"refTime":"2024-07-26T03:00:00:Z","depth":0,"parameterNumber":3,"parameterNumberName":"V-component_of_WINDS"},"data":[0,0,0,0,0,0,0,0,0,0,0,0,0,0,0,0,0,0,0,0,0,0,0,0,0,0,0,0,0,0,0,0,0,0,0,0,0,0,0,0,0,0,0,0,0,0,0,0,0,0,0,0,0,0,0,0,0,0,1.8123,1.8123,0,1.8085,1.8085,1.8084,1.8074,1.8074,1.8074,1.8074,1.8033,1.8032,1.8031,0,0,0,0,0,0,0,0,0,0,0,0,0,1.8184,1.8183,1.8123,1.8123,1.8122,1.8085,1.8085,1.8084,1.8074,1.8074,1.8074,1.8074,1.8034,1.8032,1.8031,0,0,0,0,0,0,0,0,0,0,0,0,0,1.8153,1.8183,1.8123,1.8112,1.8111,1.8085,1.8085,1.8084,1.8074,1.8074,1.8074,1.8075,1.8034,1.8032,1.803,1.8012,0,0,1.8025,1.8024,0,0,0,0,0,0,0,0,1.8155,1.8151,1.8114,1.8113,1.8112,1.8085,1.8091,1.806,1.8074,1.8088,1.8074,1.8075,1.805,1.8047,1.8039,1.801,1.8008,1.8024,1.8023,1.8022,1.8022,0,0,0,0,0,0,0,1.8157,1.8152,1.8108,1.8114,1.8112,1.8109,1.8105,1.8085,1.8067,1.8087,1.8086,1.8082,1.8049,1.8041,1.8038,1.8008,1.8024,1.8023,1.8022,1.8021,1.7962,1.7962,0,0,0,0,0,0,1.8161,1.8154,1.8109,1.8107,1.8135,1.8108,1.8103,1.8093,1.8068,1.8064,1.8081,1.8081,1.8044,1.804,1.8036,1.8013,1.8022,1.8021,1.8019,1.7963,1.7962,1.7962,0,0,0,0,0,0,1.8163,1.8157,1.8111,1.813,1.8124,1.8106,1.8095,1.8092,1.8084,1.8064,1.806,1.8076,1.8044,1.8039,1.8018,1.8012,1.802,1.8018,1.7963,1.7962,1.7962,1.7967,0,0,0,0,0,0,1.8164,1.8158,1.8151,1.813,1.8123,1.8094,1.8094,1.8091,1.808,1.808,1.8058,1.8054,1.8044,1.8021,1.8016,1.8009,1.8016,1.7963,1.7963,1.7962,1.7967,1.7966,1.7966,0,0,0,0,0,1.8167,1.8153,1.8151,1.8145,1.8114,1.8094,1.8089,1.8078,1.808,1.8073,1.806,1.8055,1.8013,1.8019,1.8014,1.8006,1.7964,1.7963,1.7962,1.7967,1.7966,1.7966,0,0,0,0,0,0,1.8173,1.815,1.8147,1.8127,1.8112,1.8092,1.8082,1.8078,1.8061,1.8062,1.8048,1.8043,1.8023,1.8012,1.8019,1.7987,1.7988,1.7986,1.7994,1.7993,1.7993,1.7996,1.8015,0,0,0,0,0,1.8172,1.8158,1.8139,1.8123,1.8115,1.81,1.8091,1.8084,1.8067,1.8061,1.8047,1.8031,1.8014,1.8003,1.7986,1.7966,1.7961,1.7957,1.7957,1.7956,1.7955,1.7943,1.7941,1.7959,1.7959,1.7959,0,0,1.817,1.8156,1.8147,1.8123,1.8111,1.8096,1.8095,1.8079,1.8067,1.8058,1.8038,1.8027,1.8008,1.7988,1.7978,1.7978,1.7949,1.7955,1.7955,1.7953,1.7942,1.794,1.7939,1.7958,1.7958,1.7958,0,0,1.8158,1.8146,1.8132,1.812,1.8102,1.8092,1.8088,1.8069,1.8061,1.8041,1.8034,1.802,1.7991,1.7978,1.7968,1.7952,1.7947,1.7947,1.7943,1.7932,1.7931,1.793,1.7924,1.7922,1.7945,1.7945,1.7945,0,1.8158,1.8135,1.8125,1.8109,1.8099,1.8091,1.8076,1.8064,1.8041,1.8034,1.8035,1.8,1.7986,1.7962,1.7959,1.7951,1.7946,1.7949,1.7932,1.7931,1.7929,1.7924,1.7922,1.7946,1.7946,1.7946,1.7946,0,1.8135,1.812,1.811,1.8089,1.8078,1.8063,1.8049,1.8039,1.8033,1.8023,1.8002,1.7986,1.7966,1.796,1.7954,1.7936,1.7936,1.7935,1.7936,1.7928,1.7922,1.792,1.7946,1.7946,1.7946,1.7946,0,0,1.8126,1.81,1.8097,1.8087,1.8067,1.8055,1.8039,1.8021,1.8012,1.7996,1.7983,1.7959,1.7958,1.7946,1.7938,1.7928,1.7917,1.7928,1.7927,1.7926,1.7896,1.7897,1.7895,1.7914,1.7913,1.7913,1.7898,0,1.8111,1.8084,1.8074,1.8052,1.8037,1.803,1.8016,1.8002,1.7992,1.7978,1.7967,1.7951,1.795,1.7943,1.7933,1.7921,1.7911,1.7922,1.79,1.79,1.7905,1.7892,1.7893,1.7879,1.7895,1.7895,1.7895,0,1.8091,1.8076,1.8052,1.8034,1.8028,1.8016,1.7999,1.7985,1.7969,1.7963,1.795,1.7943,1.7926,1.7929,1.7905,1.7913,1.7904,1.7896,1.7896,1.7893,1.7897,1.7889,1.7874,1.7872,1.7891,1.7891,1.7892,0,1.8086,1.8061,1.8043,1.8035,1.8014,1.8006,1.7996,1.798,1.797,1.7955,1.7948,1.793,1.7921,1.7907,1.7895,1.7899,1.7873,1.7875,1.7866,1.7867,1.7861,1.7861,1.7845,1.7855,1.7856,1.7856,1.7856,0,1.8071,1.8057,1.8041,1.803,1.8014,1.8003,1.7986,1.7976,1.7963,1.7949,1.7941,1.7929,1.7915,1.79,1.7891,1.7873,1.7868,1.7862,1.786,1.7863,1.7864,1.7856,1.7857,1.7855,1.7855,1.7855,1.7855,0,1.8063,1.8052,1.8032,1.8014,1.8009,1.7998,1.7982,1.7971,1.7961,1.7944,1.794,1.7924,1.7907,1.7894,1.7872,1.7865,1.7846,1.7843,1.7852,1.785,1.7843,1.7844,1.7821,1.7817,1.7831,1.783,1.783,0,1.8054,1.8043,1.8024,1.8015,1.8006,1.7991,1.7981,1.797,1.7959,1.794,1.7932,1.7914,1.7899,1.7872,1.7858,1.7841,1.7838,1.7831,1.7835,1.7839,1.7838,1.7838,1.7837,1.783,1.783,1.783,1.783,0,1.804,1.8035,1.8021,1.8005,1.7993,1.7979,1.7966,1.7959,1.7945,1.7934,1.7916,1.7905,1.7882,1.7865,1.7846,1.7836,1.7831,1.7829,1.7826,1.7829,1.7834,1.7831,1.785,1.783,1.783,1.783,1.783,1.783,1.8031,1.8021,1.8006,1.799,1.7979,1.7967,1.7956,1.7945,1.7931,1.7912,1.7906,1.7888,1.7872,1.7847,1.7837,1.7822,1.7822,1.7818,1.7817,1.7816,1.7816,1.7837,1.7819,1.7819,1.7819,1.7819,1.7819,0,1.8015,1.8006,1.7992,1.7974,1.7961,1.7958,1.7943,1.7933,1.7918,1.7904,1.789,1.787,1.7853,1.7839,1.7821,1.7812,1.7809,1.7808,1.7808,1.7806,1.7817,1.7822,1.7811,1.7811,1.7811,1.7811,1.7811,1.7811,1.8006,1.7989,1.7982,1.796,1.795,1.7933,1.7925,1.7913,1.7902,1.7881,1.7867,1.7858,1.7843,1.7825,1.7809,1.7805,1.7799,1.7798,1.7794,1.7804,1.7805,1.7806,1.781,1.7797,1.7797,1.7784,1.7784,1.7784]}]]